Camanche, IA

2:06 PM CST on February 14, 2016 (GMT -0600)
Clinton Municipal

Weather History for KCWI - March, 2014

Change the Weather History Date:

Sunday, March 23, 2014

  Actual Average (KDVN) Record (KDVN)
Temperature  
Mean Temperature 23 °F 41 °F  
Max Temperature 32 °F 52 °F - ()
Min Temperature 14 °F 31 °F - ()
Degree Days  
Heating Degree Days 42 24  
Month to date heating degree days 659  
Since 1 July heating degree days 5684  
Cooling Degree Days 0 0  
Month to date cooling degree days 0  
Year to date cooling degree days 0  
Moisture  
Dew Point 8 °F    
Average Humidity 55    
Maximum Humidity 79    
Minimum Humidity 34    
Precipitation  
Precipitation 0.00 in 0.08 in - ()
Month to date precipitation 1.84  
Year to date precipitation 4.37  
Snow  
Snow 0.00 in - - ()
Month to date snowfall  
Since 1 July snowfall  
Snow Depth -    
Sea Level Pressure  
Sea Level Pressure 30.45 in    
Wind  
Wind Speed 11 mph (NNW)    
Max Wind Speed 17 mph    
Max Gust Speed 21 mph    
Visibility 10 miles    
Events      
T = Trace of Precipitation, MM = Missing Value Source: NWS Daily Summary

Daily Weather History Graph

Daily Weather History Graph

Search for Another Location

Airport or City:

Trip Planner

Search our weather history database for the weather conditions in past years. The results will help you decide how hot, cold, wet, or windy it might be!

Date:

Astronomy

Mar. 23, 2014 Rise Set
Actual Time 6:59 AM CDT 7:16 PM CDT
Civil Twilight 6:31 AM CDT 7:44 PM CDT
Nautical Twilight 5:59 AM CDT 8:17 PM CDT
Astronomical Twilight 5:25 AM CDT 8:51 PM CDT
Moon 1:38 AM CDT (3/23) 11:36 AM CDT (3/23)
Length of Visible Light 13h 13m
Length of Day
12h 17m
Waning Gibbous, 54% of the Moon is Illuminated
Mar 23
Waning Gibbous
Mar 23
Last Quarter
Mar 30
New
Apr 7
First Quarter
Apr 15
Full

Hourly Weather History & Observations

Time (CDT) Temp. Windchill Dew Point Humidity Pressure Visibility Wind Dir Wind Speed Gust Speed Precip Events Conditions
12:15 AM 24.8 °F 11.9 °F 10.4 °F 54% 30.42 in 10.0 mi NNW 16.1 mph 20.7 mph N/A   Mostly Cloudy
12:35 AM 23.0 °F 9.2 °F 10.4 °F 59% 30.42 in 10.0 mi NNW 17.3 mph - N/A   Mostly Cloudy
12:55 AM 23.0 °F 10.1 °F 10.4 °F 59% 30.43 in 10.0 mi NNW 15.0 mph - N/A   Mostly Cloudy
1:15 AM 21.2 °F 10.9 °F 10.4 °F 63% 30.44 in 10.0 mi NNW 9.2 mph - N/A   Mostly Cloudy
1:35 AM 21.2 °F 8.9 °F 10.4 °F 63% 30.45 in 10.0 mi NNW 12.7 mph - N/A   Scattered Clouds
1:55 AM 21.2 °F 9.5 °F 10.4 °F 63% 30.45 in 10.0 mi NNW 11.5 mph - N/A   Clear
2:15 AM 21.2 °F 7.3 °F 10.4 °F 63% 30.45 in 10.0 mi NNW 16.1 mph - N/A   Partly Cloudy
2:35 AM 21.2 °F 8.3 °F 8.6 °F 58% 30.45 in 10.0 mi North 13.8 mph - N/A   Clear
2:55 AM 21.2 °F 8.3 °F 8.6 °F 58% 30.46 in 10.0 mi NNW 13.8 mph - N/A   Partly Cloudy
3:15 AM 21.2 °F 10.1 °F 8.6 °F 58% 30.46 in 10.0 mi NNW 10.4 mph - N/A   Clear
3:35 AM 19.4 °F 6.6 °F 8.6 °F 63% 30.47 in 10.0 mi NNW 12.7 mph - N/A   Clear
3:55 AM 19.4 °F 9.5 °F 8.6 °F 63% 30.47 in 10.0 mi North 8.1 mph - N/A   Clear
4:15 AM 17.6 °F 8.2 °F 8.6 °F 68% 30.47 in 10.0 mi North 6.9 mph - N/A   Clear
4:35 AM 17.6 °F 7.3 °F 8.6 °F 68% 30.47 in 10.0 mi North 8.1 mph - N/A   Clear
4:55 AM 17.6 °F 5.7 °F 8.6 °F 68% 30.47 in 10.0 mi North 10.4 mph - N/A   Clear
5:15 AM 17.6 °F 5.7 °F 8.6 °F 68% 30.48 in 10.0 mi North 10.4 mph - N/A   Clear
5:35 AM 17.6 °F 5.0 °F 8.6 °F 68% 30.48 in 10.0 mi North 11.5 mph - N/A   Clear
5:55 AM 17.6 °F 5.7 °F 8.6 °F 68% 30.48 in 10.0 mi North 10.4 mph - N/A   Clear
6:15 AM 15.8 °F 3.4 °F 6.8 °F 68% 30.48 in 10.0 mi North 10.4 mph - N/A   Clear
6:35 AM 15.8 °F 5.1 °F 6.8 °F 68% 30.48 in 10.0 mi North 8.1 mph - N/A   Clear
6:55 AM 15.8 °F 5.1 °F 6.8 °F 68% 30.49 in 10.0 mi North 8.1 mph - N/A   Clear
7:15 AM 14.0 °F 6.5 °F 6.8 °F 73% 30.50 in 10.0 mi North 4.6 mph - N/A   Clear
7:35 AM 15.8 °F 6.1 °F 8.6 °F 73% 30.50 in 10.0 mi North 6.9 mph - N/A   Clear
7:55 AM 17.6 °F 7.3 °F 8.6 °F 68% 30.51 in 10.0 mi North 8.1 mph - N/A   Clear
8:15 AM 17.6 °F 5.0 °F 6.8 °F 63% 30.51 in 10.0 mi North 11.5 mph - N/A   Clear
8:35 AM 19.4 °F 7.2 °F 6.8 °F 58% 30.51 in 10.0 mi North 11.5 mph - N/A   Clear
8:55 AM 19.4 °F 8.6 °F 6.8 °F 58% 30.51 in 10.0 mi North 9.2 mph - N/A   Clear
9:15 AM 19.4 °F 7.9 °F 6.8 °F 58% 30.51 in 10.0 mi North 10.4 mph - N/A   Clear
9:35 AM 21.2 °F 10.1 °F 5.0 °F 50% 30.51 in 10.0 mi North 10.4 mph - N/A   Clear
9:55 AM 21.2 °F 11.7 °F 5.0 °F 50% 30.51 in 10.0 mi NNW 8.1 mph - N/A   Clear
10:15 AM 21.2 °F 10.9 °F 6.8 °F 54% 30.52 in 10.0 mi NW 9.2 mph - N/A   Clear
10:35 AM 23.0 °F 11.7 °F 5.0 °F 46% 30.52 in 10.0 mi NNW 11.5 mph - N/A   Clear
10:55 AM 23.0 °F 15.8 °F 5.0 °F 46% 30.51 in 10.0 mi North 5.8 mph - N/A   Clear
11:15 AM 24.8 °F 16.1 °F 5.0 °F 43% 30.51 in 10.0 mi North 8.1 mph - N/A   Clear
11:35 AM 24.8 °F 14.6 °F 3.2 °F 40% 30.50 in 10.0 mi NNW 10.4 mph - N/A   Clear
11:55 AM 26.6 °F 18.2 °F 6.8 °F 43% 30.49 in 10.0 mi North 8.1 mph - N/A   Clear
12:15 PM 26.6 °F 17.5 °F 6.8 °F 43% 30.49 in 10.0 mi NW 9.2 mph - N/A   Clear
12:35 PM 26.6 °F 16.2 °F 6.8 °F 43% 30.48 in 10.0 mi NNW 11.5 mph 16.1 mph N/A   Clear
12:55 PM 26.6 °F 20.0 °F 6.8 °F 43% 30.48 in 10.0 mi West 5.8 mph - N/A   Clear
1:15 PM 28.4 °F 18.0 °F 6.8 °F 40% 30.47 in 10.0 mi WNW 12.7 mph 17.3 mph N/A   Clear
1:35 PM 28.4 °F 19.1 °F 6.8 °F 40% 30.46 in 10.0 mi NW 10.4 mph 16.1 mph N/A   Clear
1:55 PM 28.4 °F 22.2 °F 5.0 °F 37% 30.46 in 10.0 mi NW 5.8 mph 16.1 mph N/A   Clear
2:15 PM 30.2 °F 20.2 °F 8.6 °F 40% 30.44 in 10.0 mi WNW 12.7 mph 17.3 mph N/A   Partly Cloudy
2:35 PM 30.2 °F 23.4 °F 6.8 °F 37% 30.44 in 10.0 mi WNW 6.9 mph - N/A   Clear
2:55 PM 30.2 °F 21.3 °F 5.0 °F 34% 30.43 in 10.0 mi WNW 10.4 mph 20.7 mph N/A   Clear
3:15 PM 30.2 °F 23.4 °F 6.8 °F 37% 30.43 in 10.0 mi WNW 6.9 mph - N/A   Clear
3:35 PM 30.2 °F 21.3 °F 6.8 °F 37% 30.42 in 10.0 mi NW 10.4 mph 17.3 mph N/A   Clear
3:55 PM 30.2 °F 20.8 °F 6.8 °F 37% 30.42 in 10.0 mi NW 11.5 mph - N/A   Clear
4:15 PM 32.0 °F 22.5 °F 8.6 °F 38% 30.42 in 10.0 mi NW 12.7 mph 19.6 mph N/A   Clear
4:35 PM 30.2 °F 22.6 °F 6.8 °F 37% 30.41 in 10.0 mi NW 8.1 mph 18.4 mph N/A   Clear
4:55 PM 30.2 °F 20.2 °F 5.0 °F 34% 30.41 in 10.0 mi NW 12.7 mph - N/A   Clear
5:15 PM 30.2 °F 20.2 °F 6.8 °F 37% 30.41 in 10.0 mi NW 12.7 mph - N/A   Clear
5:35 PM 30.2 °F 21.3 °F 8.6 °F 40% 30.41 in 10.0 mi NW 10.4 mph 18.4 mph N/A   Clear
5:55 PM 30.2 °F 21.3 °F 8.6 °F 40% 30.41 in 10.0 mi NNW 10.4 mph - N/A   Clear
6:15 PM 30.2 °F 19.8 °F 8.6 °F 40% 30.40 in 10.0 mi WNW 13.8 mph 18.4 mph N/A   Partly Cloudy
6:35 PM 28.4 °F 17.5 °F 8.6 °F 43% 30.41 in 10.0 mi WNW 13.8 mph 18.4 mph N/A   Clear
6:55 PM 28.4 °F 19.1 °F 8.6 °F 43% 30.40 in 10.0 mi NW 10.4 mph - N/A   Clear
7:15 PM 26.6 °F 17.5 °F 10.4 °F 51% 30.39 in 10.0 mi NW 9.2 mph - N/A   Clear
7:35 PM 24.8 °F 16.1 °F 10.4 °F 54% 30.39 in 10.0 mi NW 8.1 mph - N/A   Clear
7:55 PM 21.2 °F 13.6 °F 10.4 °F 63% 30.39 in 10.0 mi NW 5.8 mph - N/A   Clear
8:15 PM 21.2 °F 13.6 °F 10.4 °F 63% 30.39 in 10.0 mi NW 5.8 mph - N/A   Clear
8:35 PM 21.2 °F 12.6 °F 10.4 °F 63% 30.39 in 10.0 mi NNW 6.9 mph - N/A   Clear
8:55 PM 21.2 °F 14.9 °F 10.4 °F 63% 30.39 in 10.0 mi NNW 4.6 mph - N/A   Clear
9:15 PM 19.4 °F 11.5 °F 10.4 °F 68% 30.39 in 10.0 mi NNW 5.8 mph - N/A   Clear
9:35 PM 19.4 °F 11.5 °F 10.4 °F 68% 30.39 in 10.0 mi NNW 5.8 mph - N/A   Clear
9:55 PM 19.4 °F 9.5 °F 10.4 °F 68% 30.40 in 10.0 mi NNW 8.1 mph - N/A   Clear
10:15 PM 17.6 °F 7.3 °F 10.4 °F 73% 30.40 in 10.0 mi NNW 8.1 mph - N/A   Clear
10:35 PM 17.6 °F 8.2 °F 10.4 °F 73% 30.41 in 10.0 mi North 6.9 mph - N/A   Clear
10:55 PM 17.6 °F 8.2 °F 12.2 °F 79% 30.41 in 10.0 mi NNW 6.9 mph - N/A   Clear
11:15 PM 17.6 °F 7.3 °F 10.4 °F 73% 30.42 in 10.0 mi NNW 8.1 mph - N/A   Clear
11:35 PM 19.4 °F 9.5 °F 12.2 °F 74% 30.42 in 10.0 mi North 8.1 mph - N/A   Clear
11:55 PM 19.4 °F 10.4 °F 12.2 °F 74% 30.42 in 10.0 mi North 6.9 mph - N/A   Partly Cloudy